WetterOnline ( https://www.wetteronline.de )

Wetter aktuell Vydrany

Aktuelles Wetter: Bratislava - letisko (134m)

6-stündlich | Neueste Meldungen
Ortszeit Temperatur Wetter
Fr, 21.06. 8:00 22.9° C fast wolkenlos
Fr, 21.06. 2:00 21.4° C wolkig
Do, 20.06. 20:00 25.2° C leicht bewölkt
Do, 20.06. 14:00 25.2° C leicht bewölkt
Do, 20.06. 8:00 20.7° C wolkig
Do, 20.06. 2:00 24.0° C leicht bewölkt
Mi, 19.06. 20:00 29.3° C leicht bewölkt
Mi, 19.06. 14:00 29.5° C leicht bewölkt
Ortszeit Temperatur Wetter
Fr, 21.06. 10:00 25.2° C fast wolkenlos
Fr, 21.06. 9:00 23.7° C fast wolkenlos
Fr, 21.06. 8:00 22.9° C fast wolkenlos
Fr, 21.06. 7:00 21.5° C fast wolkenlos
Fr, 21.06. 6:00 20.7° C leicht bewölkt
Fr, 21.06. 5:00 21.1° C bewölkt
Fr, 21.06. 4:00 21.3° C wolkig
Ortszeit Relative Feuchte Sichtweite
Fr, 21.06. 8:00 70% 50 km
Fr, 21.06. 2:00 73% 50 km
Do, 20.06. 20:00 60% 50 km
Do, 20.06. 14:00 52% 50 km
Do, 20.06. 8:00 66% 50 km
Do, 20.06. 2:00 68% 45 km
Mi, 19.06. 20:00 57% 50 km
Mi, 19.06. 14:00 55% 45 km
Ortszeit Relative Feuchte Sichtweite
Fr, 21.06. 10:00 65% 45 km
Fr, 21.06. 9:00 68% 50 km
Fr, 21.06. 8:00 70% 50 km
Fr, 21.06. 7:00 81% 50 km
Fr, 21.06. 6:00 85% 50 km
Fr, 21.06. 5:00 83% 50 km
Fr, 21.06. 4:00 79% 50 km
Ortszeit Niederschlagsmenge Niederschlagsart
Fr, 21.06. 8:00 0.0 l/m2 in 12 Std. -
Fr, 21.06. 2:00 0.0 l/m2 in 6 Std. -
Do, 20.06. 20:00 0.0 l/m2 in 12 Std. -
Do, 20.06. 14:00 0.0 l/m2 in 6 Std. -
Do, 20.06. 8:00 0.0 l/m2 in 12 Std. -
Do, 20.06. 2:00 0.0 l/m2 in 6 Std. -
Mi, 19.06. 20:00 0.0 l/m2 in 12 Std. -
Mi, 19.06. 14:00 0.0 l/m2 in 6 Std. -
Ortszeit Niederschlagsmenge Niederschlagsart
Fr, 21.06. 10:00 0.0 l/m2 in 1 Std. -
Fr, 21.06. 9:00 0.0 l/m2 in 1 Std. -
Fr, 21.06. 8:00 0.0 l/m2 in 1 Std. -
Fr, 21.06. 7:00 0.0 l/m2 in 1 Std. -
Fr, 21.06. 6:00 0.0 l/m2 in 1 Std. -
Fr, 21.06. 5:00 0.0 l/m2 in 1 Std. -
Fr, 21.06. 4:00 0.0 l/m2 in 1 Std. -
Ortszeit Stärke Spitze Richtung
km/h Bft. km/h Grad Sektor
Fr, 21.06. 8:00 11 2 - 40° NO
Fr, 21.06. 2:00 11 2 - 20° N
Do, 20.06. 20:00 7 2 - 80° O
Do, 20.06. 14:00 4 1 - - -
Do, 20.06. 8:00 14 3 - 330° NW
Do, 20.06. 2:00 11 2 - 50° NO
Mi, 19.06. 20:00 4 1 - 170° S
Mi, 19.06. 14:00 11 2 - 140° SO
Ortszeit Stärke Spitze Richtung
km/h Bft. km/h Grad Sektor
Fr, 21.06. 10:00 11 2 - 60° NO
Fr, 21.06. 9:00 11 2 - 50° NO
Fr, 21.06. 8:00 11 2 - 40° NO
Fr, 21.06. 7:00 14 3 - 30° NO
Fr, 21.06. 6:00 14 3 - 30° NO
Fr, 21.06. 5:00 11 2 - 30° NO
Fr, 21.06. 4:00 11 2 - 30° NO
Ortszeit Untergrenze Bedeckung Gattung
total tief tief mittel hoch
Fr, 21.06. 8:00 3000 m 1/8 1/8 - Ac Ci
Fr, 21.06. 2:00 1110 m 6/8 5/8 Sc - Ci
Do, 20.06. 20:00 7500 m 7/8 0/8 - - Cs
Do, 20.06. 14:00 7500 m 7/8 0/8 - - Cs
Do, 20.06. 8:00 3600 m 7/8 1/8 - Ac Cs
Do, 20.06. 2:00 4200 m 5/8 2/8 - Ac Ci
Mi, 19.06. 20:00 7500 m 6/8 1/8 Cb - Ci
Mi, 19.06. 14:00 6900 m 4/8 4/8 - - Ci
Ortszeit Bedeckungsgrad in Achtel und Wolkenuntergrenze
Fr, 21.06. 10:00 1(7200m)
Fr, 21.06. 9:00 1(7200m)
Fr, 21.06. 8:00 1(3000m)
Fr, 21.06. 7:00 1(3000m)
Fr, 21.06. 6:00 1(1350m) 5(6900m)
Fr, 21.06. 5:00 6(1050m)
Fr, 21.06. 4:00 6(1050m)
Ortszeit Luftdruck NN (hPa) Tendenz (hPa in 3 Std.)
Fr, 21.06. 8:00 1017 - 0,2
Fr, 21.06. 2:00 1018 + 0,8
Do, 20.06. 20:00 1018 - 1,5
Do, 20.06. 14:00 1021 0,0
Do, 20.06. 8:00 1021 + 2,3
Do, 20.06. 2:00 1016 + 2,2
Mi, 19.06. 20:00 1012 - 0,1
Mi, 19.06. 14:00 1013 - 0,3
Ortszeit Luftdruck NN (hPa) Tendenz (hPa in 3 Std.)
Fr, 21.06. 10:00 1017 keine Meldung
Fr, 21.06. 9:00 1017 keine Meldung
Fr, 21.06. 8:00 1017 - 0,2
Fr, 21.06. 7:00 1018 keine Meldung
Fr, 21.06. 6:00 1017 keine Meldung
Fr, 21.06. 5:00 1018 - 0,5
Fr, 21.06. 4:00 1018 keine Meldung
Ortszeit Schneehöhe (cm)
Fr, 21.06. 8:00 0
Fr, 21.06. 2:00 -
Do, 20.06. 20:00 -
Do, 20.06. 14:00 -
Do, 20.06. 8:00 0
Do, 20.06. 2:00 -
Mi, 19.06. 20:00 -
Mi, 19.06. 14:00 -
Ortszeit Schneehöhe (cm)
Fr, 21.06. 10:00 -
Fr, 21.06. 9:00 -
Fr, 21.06. 8:00 0
Fr, 21.06. 7:00 -
Fr, 21.06. 6:00 -
Fr, 21.06. 5:00 -
Fr, 21.06. 4:00 -
Link zu dieser Seite / Seite empfehlen

Das Wetter in ...